This is the latest recevied weather packets stored in our database for station/object OK1PNK-5. If no packets are shown the sender has not sent any weather packets the latest 1 day(s).
| Time | Temp. | Humidity | Pressure | Rain* | Wind** | Luminosity | Snow |
|---|---|---|---|---|---|---|---|
| 1777981943 | 26.67° C | 34% | 964.5 hPa | 0 mm | 0.89 m/s, 315° | - | - |
| 1777981343 | 26.11° C | 33% | 964.6 hPa | 0 mm | 0.89 m/s, 110° | - | - |
| 1777980743 | 25.56° C | 34% | 964.7 hPa | 0 mm | 0.89 m/s, 56° | - | - |
| 1777980143 | 25.56° C | 35% | 964.9 hPa | 0 mm | 0.89 m/s, 285° | - | - |
| 1777979543 | 25.56° C | 36% | 964.9 hPa | 0 mm | 0.89 m/s, 345° | - | - |
| 1777978943 | 25° C | 37% | 965 hPa | 0 mm | 0.45 m/s, 129° | - | - |
| 1777978343 | 24.44° C | 38% | 965.2 hPa | 0 mm | 0.89 m/s, 125° | - | - |
| 1777977743 | 24.44° C | 38% | 965.2 hPa | 0 mm | 0.89 m/s, 125° | - | - |
| 1777977143 | 24.44° C | 40% | 965.6 hPa | 0 mm | 0.89 m/s, 119° | - | - |
| 1777976543 | 24.44° C | 43% | 965.6 hPa | 0 mm | 0.89 m/s, 129° | - | - |
| 1777975943 | 23.89° C | 44% | 965.6 hPa | 0 mm | 1.79 m/s, 131° | - | - |
| 1777975343 | 23.89° C | 44% | 965.6 hPa | 0 mm | 1.79 m/s, 131° | - | - |
| 1777974743 | 23.33° C | 45% | 965.8 hPa | 0 mm | 0.89 m/s, 107° | - | - |
| 1777974143 | 22.78° C | 47% | 965.9 hPa | 0 mm | 1.34 m/s, 104° | - | - |
| 1777973543 | 22.78° C | 47% | 965.9 hPa | 0 mm | 1.34 m/s, 104° | - | - |
| 1777972943 | 22.22° C | 50% | 966.1 hPa | 0 mm | 0.89 m/s, 45° | - | - |
| 1777972343 | 21.67° C | 50% | 966.2 hPa | 0 mm | 0.89 m/s, 161° | - | - |
| 1777971743 | 21.67° C | 52% | 966.3 hPa | 0 mm | 0.89 m/s, 123° | - | - |
| 1777971143 | 21.67° C | 52% | 966.3 hPa | 0 mm | 0.89 m/s, 123° | - | - |
| 1777970543 | 20.56° C | 52% | 966.4 hPa | 0 mm | 0.89 m/s, 135° | - | - |
| 1777968743 | 19.44° C | 56% | 966.6 hPa | 0 mm | 0.45 m/s, 11° | - | - |
| 1777968143 | 18.89° C | 58% | 966.8 hPa | 0 mm | 0.89 m/s, 142° | - | - |
| 1777967543 | 18.89° C | 58% | 966.8 hPa | 0 mm | 0.89 m/s, 142° | - | - |
| 1777966943 | 18.33° C | 59% | 966.8 hPa | 0 mm | 0.45 m/s, 9° | - | - |
| 1777966343 | 17.78° C | 60% | 967 hPa | 0 mm | 0.45 m/s, 90° | - | - |
* Rain latest hour (hover to see other rain measurements)
** Current wind speed in m/s (hover to see current wind gust speed)